User: anonymous   Login
Location: Unspecified
(0.0000°N, 0.0000°E)
Time: 01:13:37
(UTC+00:00)
Language:

FR-1 - Orbit

View from above orbital plane
View from above orbital plane
View from above satellite
View from above satellite

Ground track
Ground track

The orbit data is extracted from the following two-line orbital elements,

1  1814U 65101A   18265.18374982 +.00000077 +00000-0 +16872-4 0  9993
2  1814 075.8684 157.3803 0006524 227.9455 132.1170 14.66520985662625
Epoch (UTC): 22 September 2018 04:24:35
Eccentricity: 0.0006524
inclination: 75.8684°
perigee height: 667 km
apogee height: 677 km
right ascension of ascending node: 157.3803°
argument of perigee: 227.9455°
revolutions per day: 14.66520985
mean anomaly at epoch: 132.1170°
orbit number at epoch: 66262

The dashed part of the orbit path shows where the satellite is in the earth's shadow,  

DLR